sat.trackr.live / text

‹ back to catalog

DISKSAT C

NORAD 67219 · 2025-305A

PAYLOAD ACTIVE UNKNOWN

§ Identity

Operator
Country
US
Launch date
2025-12-18
Launch site
WLPIS
Launch vehicle
Mass (kg)
RCS (m²)

External: N2YO · Heavens-Above · Gunter

§ Orbital elements

Epoch: 2026-05-24T21:13:54.198048Z

Period
95.41 min
Inclination
45.0016°
Eccentricity
0.0005122
Mean motion
15.09263264 rev/d
Perigee alt
534.9 km
Apogee alt
542.0 km
Semi-major
6,916.6 km
B*
5.3143e-4
RAAN
206.7129°
Arg perigee
14.5213°
Mean anomaly
345.5809°
Rev number
2,380

§ Raw data

DISKSAT C1 67219U 25305A   26144.88465507  .00008363  00000+0  53143-3 0  99982 67219  45.0016 206.7129 0005122  14.5213 345.5809 15.09263264 23801

JSON: /api/v1/satellites/67219 · /tle

For live sub-satellite position, see the globe view (requires WebGL).

§ Visibility from observer

Set your observer location to see the next 7 days of passes ≥ 10°. The values pass through the URL so the page stays shareable.

No JS? Fill the form by hand. The geolocation button needs JavaScript.